Location: Beaumé
(49.8375°N, 4.1493°E)
Time: 12:41:38
(UTC+00:00)

Daily predictions for brighter satellites

Satellite Brightness Start Highest point End
(mag) Time Altitude Azimuth Time Altitude Azimuth Time Altitude Azimuth
Cosmos 1400 Rocket 2.7 18:26:59 10° N 18:30:48 63° ENE 18:34:32 10° SSE
ACS3 Solar Sail 2.9 18:26:21 10° ESE 18:31:35 27° ENE 18:36:48 10° N
Cosmos 2322 3.8 18:26:41 10° S 18:32:13 60° ESE 18:37:48 10° NE
Cosmos 1066 Rocket 4.3 18:27:25 10° N 18:33:18 72° ENE 18:39:06 10° SSE
BlueWalker 3 2.7 18:29:42 10° WNW 18:33:19 47° SSW 18:36:56 10° SE
Cosmos 2233 Rocket 4.0 18:27:30 10° S 18:33:37 80° E 18:39:49 10° NNE
Cosmos 1726 1.2 18:33:27 10° S 18:36:12 72° E 18:39:00 10° NNE
Resurs 1-3 3.5 18:32:40 10° SSE 18:36:59 74° ENE 18:41:20 10° N
SAR-Lupe-2 3.6 18:41:22 10° SSE 18:44:56 83° WSW 18:48:33 10° NNW
Cosmos 1315 Rocket 4.2 18:43:22 10° NNE 18:46:26 21° ENE 18:49:14 11° ESE
Meteor PRIRODA 3.3 18:46:26 10° SSE 18:49:43 79° ENE 18:53:01 10° N
ATLAS 2AS CENTAUR R/B 4.3 18:43:46 10° W 18:50:15 35° NNW 18:56:31 10° NE
Cosmos 1125 Rocket 4.0 18:45:24 10° NNW 18:50:22 43° ENE 18:55:18 10° SE
Cosmos 1842 3.1 18:48:13 10° N 18:51:49 56° ENE 18:55:21 10° SSE
USA 59 Rocket 0.4 18:49:43 10° NW 18:53:29 66° SW 18:58:39 10° SSE
Cosmos 1536 3.5 18:51:05 10° SSE 18:54:26 30° E 18:57:50 10° NNE
Okean 3 Rocket 4.1 18:50:48 10° SSE 18:54:53 37° E 18:58:58 10° NNE
Cosmos 1707 2.7 18:52:08 10° N 18:55:37 51° ENE 18:59:04 10° SSE
Cosmos 2061 Rocket 4.5 18:49:19 10° SSW 18:55:43 71° W 19:02:11 10° N
Cosmos 1515 Rocket 3.9 18:51:41 10° N 18:55:50 42° ENE 18:59:59 10° SSE
COSMOS 2428 2.7 18:50:19 10° SSW 18:56:00 74° ESE 19:01:45 10° NNE
Cosmos 1818 4.0 18:55:46 10° SW 19:01:13 70° NW 19:06:43 10° NE
Okean O Rocket 2.4 18:57:41 11° SE 19:01:23 33° ENE 19:05:21 10° N
Cosmos 2278 Rocket 2.2 19:00:42 10° NNW 19:06:25 86° ENE 19:12:05 10° SSE
USA 306 2.3 19:04:52 10° WSW 19:07:59 84° NNW 19:11:32 11° ENE
Meteor 1-13 Rocket 4.5 19:03:18 10° N 19:09:04 53° ENE 19:14:42 10° SSE
CZ-4B DEB 4.4 19:03:44 10° SSE 19:09:15 79° WSW 19:14:47 10° NNW
CZ-4 R/B 1.3 19:06:25 10° SSE 19:10:15 84° WSW 19:14:11 10° NNW
Cosmos 2034 Rocket 4.5 19:06:27 10° SSE 19:12:01 37° E 19:17:36 10° NNE
CZ-4B R/B 3.2 19:08:19 10° SSE 19:13:43 70° ENE 19:19:04 10° NNW
Cosmos 1766 Rocket 3.7 19:10:09 10° SSW 19:14:30 80° W 19:18:56 10° N
Meteor 2-17 Rocket 4.4 19:09:39 10° N 19:15:46 85° E 19:21:50 10° S
Resurs 01 Rocket 1.6 19:11:23 10° SSE 19:15:47 75° ENE 19:20:13 10° N
Helios 1A 2.9 19:12:15 10° NNE 19:16:21 89° WNW 19:20:24 10° SSW
USA 290 2.9 19:13:34 10° NNW 19:16:49 56° WSW 19:20:03 10° S
Meteor 2-10 4.4 19:12:20 10° SSE 19:17:41 49° E 19:23:11 10° NNE
ADEOS 4.3 19:13:23 10° S 19:18:29 54° W 19:23:37 10° NNW
GEOS 3 Rocket 3.9 19:13:41 10° SSE 19:18:53 69° SW 19:24:04 10° NW
USA 186 1.7 19:17:53 10° SSE 19:21:05 88° WSW 19:24:21 10° NNW
CZ-4B R/B 4.4 19:16:46 10° S 19:21:20 48° W 19:26:01 10° NNW
Cosmos 1814 Rocket 4.2 19:17:03 10° SSW 19:22:20 79° WNW 19:27:37 10° NNE
PAYLOAD B 4.4 19:16:46 10° SSE 19:22:22 80° WSW 19:28:01 10° NNW
KORONAS-FOTON 4.3 19:19:01 10° NNW 19:22:40 57° W 19:26:17 10° S
Cosmos 2360 Rocket 4.4 19:18:07 10° W 19:22:47 26° NW 19:27:29 10° NNE
MOS 1-B 4.3 19:17:52 10° SSE 19:23:37 68° ENE 19:29:22 10° NNW
SPOT 5 3.6 19:22:14 21° ESE 19:24:25 31° ENE 19:28:20 10° N
Okean-O 3.4 19:23:05 22° ESE 19:25:10 33° ENE 19:29:08 10° N
Cosmos 2208 Rocket 4.5 19:21:53 10° S 19:26:41 37° ESE 19:31:34 10° NE
USA 267 4.0 19:21:11 10° ENE 19:27:23 49° N 19:33:37 10° WNW
Cosmos 1408 Rocket 3.8 19:24:25 10° SSE 19:28:36 47° E 19:32:51 10° NNE
ISS -3.4 19:26:35 10° SW 19:29:46 43° SSE 19:30:43 33° ESE
NOSS 3-3 (A) 4.2 19:25:21 10° S 19:30:13 36° ESE 19:35:48 10° NE
CZ-4B R/B 3.6 19:26:35 10° S 19:30:22 53° W 19:34:22 10° NNW
Kosmos-1783 4.3 19:30:40 10° W 19:32:23 22° NW 19:33:11 16° N
SL-08 R/B 4.2 19:28:02 10° N 19:32:52 55° WNW 19:37:39 10° SW
Cosmos 2237 Rocket 2.1 19:29:29 10° SSW 19:35:02 63° ESE 19:40:35 10° NE
CSL-04 Rocket 3.6 19:32:10 10° SSE 19:37:32 87° WSW 19:42:53 10° NNW
Aureole 3 Rocket 4.0 19:31:16 10° SSE 19:37:41 47° E 19:42:21 10° NNE
Cosmos 2219 Rocket 4.1 19:34:58 10° WSW 19:40:01 32° NW 19:45:05 10° NNE
Cosmos 1356 Rocket 4.3 19:38:36 10° NNW 19:42:40 49° W 19:46:41 10° S
Lacrosse 4 Rocket 4.3 19:42:22 10° WNW 19:44:23 13° WSW 19:46:23 10° SW
IKONOS-2 4.4 19:42:03 10° NNE 19:46:11 63° ESE 19:50:16 10° S
Meteor 1-11 Rocket 3.6 19:41:06 10° S 19:46:42 76° E 19:52:15 10° NNE
MOS 1 Rocket 4.0 19:45:38 29° ESE 19:47:40 43° ENE 19:52:40 10° N
CARTOSAT-1 4.4 19:46:46 10° S 19:50:53 49° W 19:55:02 10° NNW
Cosmos 158 Rocket 3.7 19:47:07 10° SSW 19:51:56 68° ESE 19:56:47 10° NNE
ATLAS CENTAUR R/B 0.9 19:48:29 10° SSW 19:52:00 63° SE 19:54:53 16° NE
Spot 2 Rocket 4.5 19:50:58 26° E 19:52:05 29° ENE 19:56:21 10° N
NOSS 3-4 (A) 4.2 19:46:47 10° NW 19:53:10 51° NE 19:57:11 26° E
NOSS 3-4 (C) 4.2 19:46:54 10° NW 19:53:17 51° NE 19:57:18 26° E
Cosmos 1805 Rocket 3.5 19:52:47 30° SSE 19:54:42 56° E 19:58:58 10° NNE
Cosmos 1428 Rocket 4.4 19:51:43 10° N 19:57:52 82° E 20:02:18 20° SSE
Cosmos 1733 3.6 19:55:40 10° SSW 19:59:03 53° WNW 20:02:26 10° N
USA 276 3.8 19:58:45 10° W 20:00:38 21° SW 20:00:38 21° SW
Cosmos 2369 Rocket 2.9 19:58:03 10° NNW 20:03:25 39° NE 20:05:12 31° E
SL-24 R/B 4.4 20:01:56 36° SE 20:03:44 62° E 20:08:29 10° N
Cosmos 1980 3.8 19:58:54 10° SSW 20:04:35 79° WNW 20:10:19 10° NNE
Cosmos 1862 Rocket 4.4 20:02:35 10° N 20:06:32 34° ENE 20:06:32 34° ENE
Meteor 1-21 4.3 20:02:26 10° N 20:08:10 64° ENE 20:10:23 38° SE
Sich 1 2.9 20:07:33 27° S 20:09:53 86° ESE 20:14:14 10° N
Cosmos 1943 Rocket 2.9 20:05:06 10° NW 20:10:23 48° WSW 20:14:05 19° S
Cosmos 1707 Rocket 4.0 20:06:51 10° N 20:11:05 42° ENE 20:11:05 42° ENE
DELTA 2 DEB (DPAF) 3.9 20:07:42 10° NNE 20:11:47 57° E 20:11:47 57° E
Cosmos 2298 Rocket 4.0 20:08:58 10° NNW 20:14:18 80° WSW 20:16:27 37° SSE
Terra 2.1 20:13:52 45° E 20:14:23 47° ENE 20:18:55 10° N
ACS3 Solar Sail 2.1 20:09:35 14° S 20:15:06 70° W 20:21:32 10° NNW
ERS-1 Rocket 3.1 20:14:04 47° ESE 20:15:08 58° ENE 20:20:05 10° N
Cosmos 2195 Rocket 4.4 20:09:14 10° N 20:15:22 84° W 20:19:12 25° S
Cosmos 2150 Rocket 4.0 20:10:49 10° NNW 20:15:59 78° WSW 20:17:56 39° S
USA 32 4.1 20:11:18 10° N 20:16:34 81° W 20:19:24 28° S
Cosmos 1570 Rocket 4.3 20:11:59 10° SSW 20:17:15 70° WNW 20:22:31 10° NNE
Cosmos 1975 3.2 20:18:58 47° NE 20:18:58 47° NE 20:22:00 10° NNE
Cosmos 1805 3.3 20:21:37 57° SW 20:22:11 69° W 20:25:51 10° N
Cosmos 1315 Rocket 4.0 20:18:56 10° NNW 20:22:40 40° W 20:24:27 25° SSW
Cosmos 2026 Rocket 3.9 20:16:27 10° N 20:22:44 88° WSW 20:25:51 31° S
Cosmos 1092 Rocket 4.0 20:16:51 10° N 20:23:13 89° WSW 20:26:28 31° S
Ariane Rocket 3.4 20:24:22 43° ENE 20:24:42 44° ENE 20:29:31 10° N
Meteor 2-12 Rocket 4.3 20:20:20 10° N 20:26:32 83° E 20:28:56 40° SSE
IRS-1A Rocket 4.2 20:26:27 45° SSE 20:28:22 82° ENE 20:34:05 10° NNW
Okean 3 3.9 20:29:24 10° N 20:32:45 47° NE 20:32:45 47° NE
SL-16 R/B 2.1 20:35:16 58° ESE 20:35:26 59° ESE 20:41:00 10° NE
Okean O Rocket 3.2 20:35:02 18° SSW 20:37:37 32° W 20:41:36 10° NNW
Cosmos 1634 Rocket 3.9 20:36:32 34° S 20:39:31 83° E 20:45:53 10° N
SL-14 R/B 4.1 20:36:42 10° NNW 20:40:19 43° W 20:40:36 43° WSW
Cosmos 1656 Rocket 3.5 20:34:42 10° NNW 20:40:24 86° ENE 20:41:19 64° SE
USA 306 3.6 20:37:33 10° WNW 20:40:35 41° NNW 20:40:35 41° NNW
USA 59 Rocket 3.1 20:42:14 10° WSW 20:42:45 10° WSW 20:43:17 10° WSW
ATLAS 2AS CENTAUR R/B 4.4 20:37:26 10° NW 20:43:11 26° N 20:48:47 10° ENE
IRS-1C Rocket 4.1 20:45:02 60° S 20:45:59 80° WSW 20:51:18 10° NNW
Cosmos 773 Rocket 3.9 20:45:39 38° SSW 20:47:46 86° WNW 20:53:06 10° NNE
Okean 1-7 4.1 20:45:46 10° N 20:48:39 35° NNE 20:48:39 35° NNE
Cosmos 2263 4.2 20:45:51 10° NNW 20:51:33 61° ENE 20:51:55 60° ENE
Resurs 01 Rocket 4.4 20:50:24 10° WSW 20:52:45 14° W 20:55:06 10° NW
Cosmos 2228 Rocket 3.3 20:50:54 10° NNW 20:55:20 70° W 20:55:20 70° W
SPOT 3 Rocket 3.4 21:00:55 80° NE 21:00:55 80° NE 21:05:55 10° NNW
Okean-O 4.1 21:00:31 28° WSW 21:01:32 31° W 21:05:28 10° NNW
SPOT 5 4.0 21:01:23 31° WSW 21:02:23 34° W 21:06:29 10° NNW
Cosmos 2142 Rocket 4.3 21:02:36 71° ESE 21:02:48 72° E 21:08:55 10° NNE
NOSS 3-3 (C) 4.1 21:00:58 10° SW 21:06:28 67° NW 21:13:04 10° NE
ISS -0.9 21:03:09 10° W 21:03:42 14° W 21:03:42 14° W
USA 267 3.4 21:08:22 51° E 21:09:57 68° NNE 21:16:26 10° WNW
Cosmos 1655 Rocket 4.5 21:04:43 10° N 21:10:37 46° ENE 21:10:37 46° ENE
Cosmos 724 4.2 21:15:31 71° NE 21:15:31 71° NE 21:20:42 10° NE
Cosmos 2180 Rocket 4.4 21:17:01 79° ESE 21:17:09 79° E 21:23:32 10° NNE
Cosmos 2237 Rocket 4.0 21:14:37 10° WSW 21:19:30 29° NW 21:24:24 10° NNE
NOSS 3-3 (A) 4.5 21:15:18 10° WSW 21:20:47 55° NW 21:27:19 10° NE
Cosmos 2279 Rocket 4.0 21:20:00 60° SW 21:21:05 75° W 21:27:21 10° N
Cosmos 1607 4.1 21:18:20 10° SW 21:24:48 77° NW 21:31:17 10° NE
Cosmos 2297 4.3 21:23:40 10° NW 21:28:59 49° WSW 21:28:59 49° WSW
ATLAS CENTAUR R/B 3.5 21:26:48 10° W 21:29:44 22° NNW 21:29:51 22° NNW
Spot 2 Rocket 4.2 21:31:06 46° W 21:31:06 46° W 21:35:40 10° NNW
NOSS 3-4 (A) 4.1 21:37:37 10° NW 21:44:17 55° WSW 21:44:37 55° SW
NOSS 3-4 (C) 4.1 21:37:43 10° NW 21:44:24 55° SW 21:44:43 55° SW
Cosmos 2369 Rocket 3.0 21:42:06 10° NW 21:46:58 43° W 21:46:58 43° W
Terra 3.7 21:52:34 24° W 21:52:34 24° W 21:56:01 10° NW
ACS3 Solar Sail 4.3 21:57:23 10° WSW 22:00:20 13° W 22:03:17 10° NW
SL-16 R/B 3.8 22:17:00 20° W 22:19:53 31° NW 22:24:56 10° NNE
ATLAS 2AS CENTAUR R/B 3.5 22:29:25 10° NW 22:35:56 41° NNE 22:36:31 40° NE
Cosmos 1943 4.4 22:41:44 37° N 22:41:44 37° N 22:45:25 10° NNE
USA 267 4.3 22:55:43 35° W 22:55:43 35° W 22:59:30 10° WNW
Cosmos 1697 Rocket 4.2 22:48:39 10° NNW 22:52:28 32° NNE 22:52:28 32° NNE
Cosmos 2344 3.9 23:19:32 10° NW 23:27:15 77° W 23:27:15 77° W
Cosmos 1980 Rocket 3.7 23:48:53 10° NNW 23:52:13 33° N 23:52:13 33° N
